TimeCDT,TemperatureF,Dew PointF,Humidity,Sea Level PressureIn,VisibilityMPH,Wind Direction,Wind SpeedMPH,Gust SpeedMPH,PrecipitationIn,Events,Conditions,WindDirDegrees,DateUTC
12:55 AM,55.9,46.0,69,30.08,10.0,SW,4.6,-,N/A,,Clear,230,2013-05-11 05:55:00
1:55 AM,53.1,45.0,74,30.07,10.0,WSW,3.5,-,N/A,,Clear,250,2013-05-11 06:55:00
2:55 AM,52.0,45.0,77,30.07,10.0,WSW,4.6,-,N/A,,Clear,240,2013-05-11 07:55:00
3:55 AM,50.0,45.0,83,30.08,10.0,West,5.8,-,N/A,,Clear,270,2013-05-11 08:55:00
4:55 AM,52.0,46.0,80,30.11,10.0,NW,11.5,-,N/A,,Clear,320,2013-05-11 09:55:00
5:55 AM,54.0,45.0,72,30.13,10.0,North,16.1,23.0,N/A,,Clear,10,2013-05-11 10:55:00
6:55 AM,53.1,43.0,69,30.18,10.0,NNE,13.8,-,N/A,,Clear,30,2013-05-11 11:55:00
7:55 AM,54.0,41.0,62,30.22,10.0,NNE,13.8,21.9,N/A,,Partly Cloudy,30,2013-05-11 12:55:00
8:55 AM,55.4,37.4,51,30.26,10.0,NNE,23.0,28.8,N/A,,Clear,30,2013-05-11 13:55:00
9:55 AM,57.9,36.0,44,30.26,10.0,NNE,19.6,31.1,N/A,,Clear,30,2013-05-11 14:55:00
10:55 AM,60.1,37.0,42,30.28,10.0,NNE,18.4,24.2,N/A,,Clear,20,2013-05-11 15:55:00
11:55 AM,62.1,34.0,35,30.29,10.0,North,13.8,24.2,N/A,,Clear,360,2013-05-11 16:55:00
12:55 PM,63.0,28.9,28,30.29,10.0,North,16.1,27.6,N/A,,Clear,10,2013-05-11 17:55:00
1:55 PM,64.9,30.0,27,30.28,10.0,North,16.1,26.5,N/A,,Clear,360,2013-05-11 18:55:00
2:55 PM,64.9,27.0,24,30.27,10.0,North,17.3,29.9,N/A,,Clear,350,2013-05-11 19:55:00
3:55 PM,66.9,27.0,22,30.26,10.0,North,11.5,24.2,N/A,,Clear,350,2013-05-11 20:55:00
4:55 PM,66.0,26.1,22,30.24,10.0,NNW,16.1,-,N/A,,Clear,340,2013-05-11 21:55:00
5:55 PM,64.9,26.1,23,30.24,10.0,North,13.8,21.9,N/A,,Clear,350,2013-05-11 22:55:00
6:55 PM,63.0,26.1,25,30.23,10.0,North,12.7,-,N/A,,Clear,360,2013-05-11 23:55:00
7:55 PM,59.0,30.0,33,30.24,10.0,NNE,8.1,-,N/A,,Clear,20,2013-05-12 00:55:00
8:55 PM,55.4,30.2,38,30.25,10.0,NE,3.5,-,N/A,,Clear,40,2013-05-12 01:55:00
9:55 PM,51.1,30.9,46,30.25,10.0,Calm,Calm,-,N/A,,Clear,0,2013-05-12 02:55:00
10:55 PM,48.0,30.0,50,30.27,10.0,ESE,4.6,-,N/A,,Clear,120,2013-05-12 03:55:00
11:55 PM,48.0,28.9,48,30.27,10.0,SE,4.6,-,N/A,,Clear,140,2013-05-12 04:55:00